カタログに戻る

STARLINK-3602

運用中通信VLEO
NORAD 51791·PAYLOAD·🇺🇸 United States

打ち上げ Feb 25, 2022 から Vandenberg Space Force Base

Loading…

次のパス (今後24時間)

TLE

最新Source: CelesTrak SupGP

元期: Sep 15, 2026, 02:21 UTC

1 51791C 22017Z   26258.09840278 -.00000037  00000+0 -11278-5 0  2589
2 51791  53.1583 205.1565 0001368  84.8624 127.2687 15.33557590    11

AllMySatでSTARLINK-3602をリアルタイム追跡

Download on the App Store